BKB3 CYKA-CYKA

Flight info

Callsign BKB3
Flight time 1h 12m
Altitude 6500
Route VFR
Aircraft C208/L-SDFGR/C

Departure

Time 2026-04-22 12:23
Airport Kamloops John Moose Fulton Field Regional Airport (CYKA)

Arrival

Time 2026-04-22 13:36
Airport Kamloops John Moose Fulton Field Regional Airport (CYKA)
Time Latitude Longitude Altitude Speed Heading
2026-04-22 12:15 50.70644 -120.43778 1133 ft 0 kts 340°
2026-04-22 12:17 50.70649 -120.43779 1133 ft 0 kts 10°
2026-04-22 12:18 50.70642 -120.43781 1115 ft 2 kts 19°
2026-04-22 12:18 50.70637 -120.43785 1118 ft 0 kts 29°
2026-04-22 12:18 50.70638 -120.43784 1119 ft 1 kts 36°
2026-04-22 12:19 50.70626 -120.43756 1133 ft 7 kts 158°
2026-04-22 12:19 50.70586 -120.43815 1133 ft 10 kts 245°
2026-04-22 12:19 50.70545 -120.43932 1133 ft 11 kts 237°
2026-04-22 12:19 50.70497 -120.43995 1136 ft 8 kts 211°
2026-04-22 12:20 50.70444 -120.44047 1134 ft 12 kts 217°
2026-04-22 12:20 50.70401 -120.44165 1133 ft 11 kts 239°
2026-04-22 12:20 50.70367 -120.44263 1135 ft 11 kts 242°
2026-04-22 12:20 50.70306 -120.44372 1135 ft 15 kts 196°
2026-04-22 12:21 50.70244 -120.44446 1133 ft 11 kts 281°
2026-04-22 12:21 50.70266 -120.44594 1132 ft 15 kts 284°
2026-04-22 12:21 50.70292 -120.44730 1133 ft 9 kts 298°
2026-04-22 12:21 50.70284 -120.44732 1135 ft 0 kts 104°
2026-04-22 12:22 50.70283 -120.44729 1135 ft 5 kts 103°
2026-04-22 12:22 50.70239 -120.44425 1133 ft 50 kts 103°
2026-04-22 12:22 50.70125 -120.43672 1133 ft 89 kts 103°
2026-04-22 12:22 50.69975 -120.42624 1232 ft 103 kts 103°
2026-04-22 12:23 50.69769 -120.41513 1422 ft 107 kts 104°
2026-04-22 12:23 50.69591 -120.40327 1608 ft 114 kts 98°
2026-04-22 12:23 50.69426 -120.39081 1812 ft 117 kts 98°
2026-04-22 12:23 50.69257 -120.37814 1979 ft 121 kts 100°
2026-04-22 12:24 50.69102 -120.36457 2167 ft 131 kts 99°
2026-04-22 12:24 50.68933 -120.35021 2351 ft 139 kts 100°
2026-04-22 12:24 50.68743 -120.33490 2586 ft 145 kts 99°
2026-04-22 12:24 50.68528 -120.31919 2747 ft 147 kts 100°
2026-04-22 12:25 50.68330 -120.30343 2871 ft 147 kts 100°
2026-04-22 12:25 50.68155 -120.28743 3041 ft 149 kts 99°
2026-04-22 12:25 50.67973 -120.27137 3212 ft 149 kts 100°
2026-04-22 12:25 50.67784 -120.25527 3406 ft 149 kts 100°
2026-04-22 12:26 50.67592 -120.23934 3583 ft 147 kts 100°
2026-04-22 12:26 50.67397 -120.22356 3777 ft 147 kts 100°
2026-04-22 12:26 50.67203 -120.20776 3965 ft 147 kts 99°
2026-04-22 12:26 50.66998 -120.19210 4155 ft 145 kts 99°
2026-04-22 12:27 50.67141 -120.17694 4344 ft 140 kts 55°
2026-04-22 12:27 50.67746 -120.16536 4519 ft 135 kts 41°
2026-04-22 12:27 50.68377 -120.15446 4681 ft 134 kts 43°
2026-04-22 12:27 50.68977 -120.14332 4825 ft 134 kts 50°
2026-04-22 12:28 50.69422 -120.13026 4989 ft 136 kts 62°
2026-04-22 12:28 50.69676 -120.11603 5163 ft 137 kts 75°
2026-04-22 12:28 50.69786 -120.10098 5339 ft 139 kts 81°
2026-04-22 12:28 50.69819 -120.08572 5537 ft 141 kts 84°
2026-04-22 12:29 50.69814 -120.07018 5721 ft 142 kts 85°
2026-04-22 12:29 50.69795 -120.05449 5912 ft 144 kts 86°
2026-04-22 12:29 50.69772 -120.03819 5985 ft 154 kts 85°
2026-04-22 12:29 50.69750 -120.02063 5998 ft 165 kts 86°
2026-04-22 12:30 50.69678 -119.98310 5979 ft 173 kts 86°
2026-04-22 12:30 50.69654 -119.96438 5967 ft 169 kts 86°
2026-04-22 12:30 50.69624 -119.94603 5965 ft 166 kts 86°
2026-04-22 12:31 50.69596 -119.92795 5954 ft 163 kts 86°
2026-04-22 12:31 50.69568 -119.91020 5952 ft 160 kts 85°
2026-04-22 12:31 50.69544 -119.89310 5943 ft 158 kts 86°
2026-04-22 12:31 50.69515 -119.87579 5958 ft 157 kts 86°
2026-04-22 12:32 50.69487 -119.85843 5962 ft 158 kts 86°
2026-04-22 12:32 50.69431 -119.82376 5972 ft 159 kts 86°
2026-04-22 12:32 50.69403 -119.80630 5974 ft 160 kts 86°
2026-04-22 12:33 50.69372 -119.78862 5974 ft 162 kts 86°
2026-04-22 12:33 50.69356 -119.77088 5971 ft 162 kts 88°
2026-04-22 12:33 50.69323 -119.75311 5964 ft 162 kts 89°
2026-04-22 12:33 50.69284 -119.73535 5960 ft 162 kts 89°
2026-04-22 12:34 50.69247 -119.71763 5954 ft 161 kts 89°
2026-04-22 12:34 50.69222 -119.70001 5959 ft 160 kts 88°
2026-04-22 12:34 50.69193 -119.68241 5962 ft 160 kts 89°
2026-04-22 12:34 50.69159 -119.66486 5945 ft 159 kts 89°
2026-04-22 12:35 50.69121 -119.64751 5923 ft 157 kts 89°
2026-04-22 12:35 50.69087 -119.63029 5949 ft 158 kts 88°
2026-04-22 12:35 50.69061 -119.61300 5972 ft 161 kts 90°
2026-04-22 12:35 50.69012 -119.59514 5961 ft 164 kts 88°
2026-04-22 12:36 50.68994 -119.57716 5940 ft 164 kts 87°
2026-04-22 12:36 50.68972 -119.55932 5916 ft 161 kts 89°
2026-04-22 12:36 50.68935 -119.54180 5936 ft 159 kts 89°
2026-04-22 12:36 50.68899 -119.52427 5951 ft 160 kts 88°
2026-04-22 12:37 50.68864 -119.50668 5960 ft 161 kts 88°
2026-04-22 12:37 50.68830 -119.48876 5973 ft 165 kts 89°
2026-04-22 12:37 50.68792 -119.47060 5945 ft 166 kts 88°
2026-04-22 12:37 50.68756 -119.45248 5936 ft 164 kts 88°
2026-04-22 12:38 50.68721 -119.43453 5928 ft 163 kts 88°
2026-04-22 12:38 50.68683 -119.41685 5915 ft 160 kts 88°
2026-04-22 12:38 50.68647 -119.39943 5788 ft 157 kts 89°
2026-04-22 12:38 50.68612 -119.38249 5573 ft 150 kts 89°
2026-04-22 12:39 50.68564 -119.36647 5336 ft 146 kts 89°
2026-04-22 12:39 50.68688 -119.33537 4821 ft 139 kts 78°
2026-04-22 12:39 50.68853 -119.32010 4470 ft 143 kts 77°
2026-04-22 12:40 50.69041 -119.30469 4101 ft 143 kts 76°
2026-04-22 12:40 50.69231 -119.28973 3753 ft 135 kts 76°
2026-04-22 12:40 50.69505 -119.27602 3388 ft 129 kts 51°
2026-04-22 12:40 50.70271 -119.27084 3005 ft 124 kts 350°
2026-04-22 12:41 50.70888 -119.27912 2652 ft 122 kts 288°
2026-04-22 12:41 50.70730 -119.29167 2318 ft 123 kts 228°
2026-04-22 12:41 50.69964 -119.29518 2119 ft 117 kts 163°
2026-04-22 12:41 50.69323 -119.28861 2029 ft 104 kts 142°
2026-04-22 12:42 50.68838 -119.28137 1970 ft 96 kts 105°
2026-04-22 12:42 50.69057 -119.27281 1961 ft 88 kts 20°
2026-04-22 12:42 50.69647 -119.27222 1968 ft 85 kts 358°
2026-04-22 12:42 50.70238 -119.27164 1962 ft 85 kts 360°
2026-04-22 12:43 50.70740 -119.27486 1935 ft 82 kts 292°
2026-04-22 12:43 50.70529 -119.28311 1969 ft 95 kts 220°
2026-04-22 12:43 50.69856 -119.28464 1967 ft 112 kts 154°
2026-04-22 12:43 50.69446 -119.27393 1921 ft 127 kts 89°
2026-04-22 12:44 50.69865 -119.26187 1845 ft 134 kts 31°
2026-04-22 12:44 50.70711 -119.25517 1743 ft 139 kts 38°
2026-04-22 12:44 50.71413 -119.24504 1723 ft 137 kts 42°
2026-04-22 12:44 50.72007 -119.23497 1835 ft 116 kts 43°
2026-04-22 12:45 50.72723 -119.23237 1799 ft 108 kts 339°
2026-04-22 12:45 50.73169 -119.24031 1912 ft 92 kts 283°
2026-04-22 12:45 50.73019 -119.24959 1967 ft 92 kts 226°
2026-04-22 12:45 50.72404 -119.25287 1958 ft 101 kts 178°
2026-04-22 12:46 50.71725 -119.24921 1922 ft 108 kts 140°
2026-04-22 12:46 50.71335 -119.23898 1868 ft 114 kts 104°
2026-04-22 12:46 50.71239 -119.22683 1835 ft 111 kts 69°
2026-04-22 12:46 50.71813 -119.22042 1842 ft 105 kts 357°
2026-04-22 12:47 50.72356 -119.22695 1854 ft 103 kts 296°
2026-04-22 12:47 50.72441 -119.23797 1850 ft 105 kts 256°
2026-04-22 12:47 50.72095 -119.24803 1846 ft 106 kts 228°
2026-04-22 12:47 50.71729 -119.25763 1833 ft 103 kts 273°
2026-04-22 12:48 50.72134 -119.26553 1835 ft 100 kts 347°
2026-04-22 12:48 50.72823 -119.26473 1832 ft 100 kts
2026-04-22 12:48 50.73516 -119.26283 1845 ft 102 kts 10°
2026-04-22 12:48 50.74219 -119.26065 1847 ft 104 kts
2026-04-22 12:49 50.74943 -119.25910 1843 ft 105 kts
2026-04-22 12:49 50.75676 -119.25778 1843 ft 106 kts
2026-04-22 12:49 50.76416 -119.25710 1839 ft 107 kts 348°
2026-04-22 12:49 50.77048 -119.26299 1842 ft 107 kts 315°
2026-04-22 12:50 50.77562 -119.27148 1842 ft 107 kts 309°
2026-04-22 12:50 50.77652 -119.28243 1844 ft 107 kts 240°
2026-04-22 12:50 50.77021 -119.28750 1844 ft 107 kts 182°
2026-04-22 12:50 50.76278 -119.28724 1842 ft 108 kts 165°
2026-04-22 12:51 50.75836 -119.27884 1841 ft 107 kts 96°
2026-04-22 12:51 50.76047 -119.26788 1842 ft 107 kts 45°
2026-04-22 12:51 50.76704 -119.26285 1844 ft 108 kts
2026-04-22 12:51 50.77361 -119.26777 1843 ft 108 kts 311°
2026-04-22 12:52 50.77446 -119.27885 1841 ft 108 kts 242°
2026-04-22 12:52 50.76927 -119.28728 1844 ft 109 kts 207°
2026-04-22 12:52 50.76200 -119.29027 1844 ft 109 kts 183°
2026-04-22 12:52 50.75434 -119.29045 1843 ft 110 kts 178°
2026-04-22 12:53 50.74674 -119.28994 1844 ft 111 kts 176°
2026-04-22 12:53 50.73900 -119.28910 1841 ft 111 kts 175°
2026-04-22 12:53 50.73128 -119.28785 1840 ft 112 kts 175°
2026-04-22 12:53 50.72355 -119.28639 1831 ft 111 kts 174°
2026-04-22 12:54 50.71572 -119.28508 1784 ft 118 kts 175°
2026-04-22 12:54 50.70734 -119.28377 1716 ft 122 kts 174°
2026-04-22 12:54 50.69997 -119.27807 1673 ft 122 kts 122°
2026-04-22 12:54 50.69960 -119.26557 1661 ft 118 kts 57°
2026-04-22 12:55 50.70636 -119.25983 1660 ft 115 kts 355°
2026-04-22 12:55 50.71223 -119.26702 1646 ft 113 kts 289°
2026-04-22 12:55 50.71123 -119.27898 1636 ft 113 kts 238°
2026-04-22 12:55 50.70495 -119.28605 1640 ft 115 kts 189°
2026-04-22 12:56 50.69733 -119.28363 1644 ft 116 kts 143°
2026-04-22 12:56 50.69474 -119.27242 1647 ft 114 kts 74°
2026-04-22 12:56 50.69983 -119.26357 1651 ft 112 kts 28°
2026-04-22 12:56 50.70646 -119.25828 1797 ft 100 kts 22°
2026-04-22 12:57 50.71124 -119.25132 1972 ft 94 kts 63°
2026-04-22 12:57 50.71289 -119.24184 2113 ft 91 kts 108°
2026-04-22 12:57 50.70875 -119.23498 2275 ft 83 kts 142°
2026-04-22 12:57 50.70360 -119.22886 2273 ft 103 kts 142°
2026-04-22 12:58 50.69772 -119.22239 2451 ft 102 kts 146°
2026-04-22 12:58 50.69165 -119.21625 2582 ft 107 kts 146°
2026-04-22 12:58 50.68510 -119.20960 2671 ft 116 kts 146°
2026-04-22 12:58 50.67808 -119.20250 2755 ft 123 kts 146°
2026-04-22 12:59 50.67024 -119.19645 2825 ft 128 kts 159°
2026-04-22 12:59 50.66171 -119.19190 2885 ft 131 kts 161°
2026-04-22 12:59 50.65308 -119.18773 2925 ft 133 kts 164°
2026-04-22 12:59 50.64386 -119.18351 2994 ft 141 kts 164°
2026-04-22 13:00 50.63432 -119.17924 3150 ft 144 kts 164°
2026-04-22 13:00 50.62459 -119.17484 3316 ft 147 kts 165°
2026-04-22 13:00 50.61472 -119.17017 3479 ft 149 kts 164°
2026-04-22 13:00 50.60475 -119.16542 3639 ft 150 kts 164°
2026-04-22 13:01 50.59473 -119.16068 3787 ft 151 kts 164°
2026-04-22 13:01 50.58470 -119.15591 3936 ft 150 kts 165°
2026-04-22 13:01 50.57470 -119.15116 4074 ft 149 kts 164°
2026-04-22 13:01 50.56476 -119.14634 4238 ft 149 kts 164°
2026-04-22 13:02 50.55479 -119.14151 4404 ft 150 kts 164°
2026-04-22 13:02 50.54477 -119.13671 4566 ft 151 kts 165°
2026-04-22 13:02 50.53469 -119.13185 4712 ft 152 kts 164°
2026-04-22 13:02 50.52456 -119.12698 4859 ft 153 kts 164°
2026-04-22 13:03 50.51437 -119.12208 5008 ft 153 kts 164°
2026-04-22 13:03 50.50416 -119.11714 5172 ft 154 kts 164°
2026-04-22 13:03 50.49389 -119.11207 5323 ft 155 kts 164°
2026-04-22 13:03 50.48358 -119.10694 5474 ft 156 kts 164°
2026-04-22 13:04 50.47319 -119.10179 5648 ft 158 kts 164°
2026-04-22 13:04 50.46265 -119.09652 5788 ft 161 kts 163°
2026-04-22 13:04 50.45180 -119.09102 5865 ft 167 kts 164°
2026-04-22 13:04 50.44051 -119.08526 5927 ft 174 kts 163°
2026-04-22 13:05 50.42873 -119.07932 5920 ft 180 kts 165°
2026-04-22 13:05 50.41697 -119.07353 6156 ft 174 kts 164°
2026-04-22 13:05 50.40551 -119.06797 6286 ft 172 kts 165°
2026-04-22 13:05 50.39435 -119.06250 6319 ft 163 kts 165°
2026-04-22 13:06 50.38398 -119.05716 6364 ft 147 kts 163°
2026-04-22 13:06 50.37475 -119.05230 6397 ft 138 kts 164°
2026-04-22 13:06 50.36591 -119.04797 6377 ft 125 kts 175°
2026-04-22 13:06 50.35791 -119.04896 6387 ft 108 kts 211°
2026-04-22 13:07 50.35482 -119.05729 6398 ft 87 kts 290°
2026-04-22 13:07 50.35937 -119.06254 6426 ft 90 kts 348°
2026-04-22 13:07 50.36580 -119.06117 6383 ft 103 kts 21°
2026-04-22 13:07 50.36942 -119.05112 6376 ft 116 kts 82°
2026-04-22 13:08 50.36589 -119.03989 6390 ft 121 kts 145°
2026-04-22 13:08 50.36063 -119.03737 6403 ft 116 kts 189°
2026-04-22 13:08 50.35397 -119.04256 6422 ft 108 kts 235°
2026-04-22 13:08 50.35001 -119.05292 6443 ft 118 kts 251°
2026-04-22 13:09 50.34807 -119.06597 6442 ft 129 kts 277°
2026-04-22 13:09 50.34891 -119.08080 6454 ft 144 kts 280°
2026-04-22 13:09 50.35033 -119.09678 6422 ft 151 kts 281°
2026-04-22 13:09 50.35221 -119.11323 6405 ft 155 kts 283°
2026-04-22 13:10 50.35420 -119.12995 6426 ft 158 kts 283°
2026-04-22 13:10 50.35619 -119.14712 6431 ft 162 kts 283°
2026-04-22 13:10 50.35825 -119.16464 6433 ft 165 kts 283°
2026-04-22 13:10 50.36035 -119.18250 6433 ft 168 kts 283°
2026-04-22 13:11 50.36279 -119.20015 6434 ft 168 kts 291°
2026-04-22 13:11 50.36772 -119.21648 6429 ft 168 kts 299°
2026-04-22 13:13 50.37061 -119.22496 6428 ft 169 kts 300°
2026-04-22 13:13 50.37637 -119.24105 6426 ft 169 kts 301°
2026-04-22 13:14 50.38217 -119.25666 6417 ft 168 kts 301°
2026-04-22 13:14 50.38811 -119.27229 6422 ft 166 kts 302°
2026-04-22 13:14 50.39405 -119.28778 6418 ft 164 kts 302°
2026-04-22 13:14 50.39992 -119.30305 6427 ft 163 kts 302°
2026-04-22 13:15 50.40577 -119.31821 6424 ft 162 kts 302°
2026-04-22 13:15 50.41159 -119.33327 6425 ft 161 kts 302°
2026-04-22 13:15 50.41742 -119.34826 6423 ft 160 kts 302°
2026-04-22 13:15 50.42318 -119.36322 6427 ft 160 kts 301°
2026-04-22 13:16 50.42879 -119.37828 6437 ft 160 kts 302°
2026-04-22 13:16 50.43466 -119.39318 6451 ft 161 kts 302°
2026-04-22 13:16 50.44043 -119.40824 6445 ft 161 kts 302°
2026-04-22 13:16 50.44617 -119.42350 6465 ft 164 kts 302°
2026-04-22 13:17 50.45205 -119.43905 6444 ft 165 kts 302°
2026-04-22 13:17 50.45797 -119.45444 6421 ft 163 kts 302°
2026-04-22 13:17 50.46393 -119.46932 6432 ft 160 kts 301°
2026-04-22 13:17 50.46966 -119.48433 6440 ft 160 kts 302°
2026-04-22 13:18 50.47542 -119.49934 6443 ft 160 kts 302°
2026-04-22 13:18 50.48104 -119.51421 6458 ft 161 kts 302°
2026-04-22 13:18 50.48682 -119.52964 6451 ft 162 kts 302°
2026-04-22 13:18 50.49250 -119.54470 6446 ft 162 kts 302°
2026-04-22 13:19 50.49817 -119.55992 6450 ft 160 kts 302°
2026-04-22 13:19 50.50373 -119.57492 6446 ft 158 kts 302°
2026-04-22 13:19 50.50926 -119.58970 6437 ft 155 kts 303°
2026-04-22 13:19 50.51475 -119.60418 6451 ft 153 kts 302°
2026-04-22 13:20 50.51992 -119.61857 6329 ft 147 kts 301°
2026-04-22 13:20 50.52572 -119.63038 6380 ft 136 kts 317°
2026-04-22 13:20 50.53445 -119.63661 6222 ft 144 kts 335°
2026-04-22 13:20 50.54294 -119.64418 6189 ft 140 kts 326°
2026-04-22 13:21 50.55114 -119.65271 6125 ft 140 kts 321°
2026-04-22 13:21 50.55863 -119.66265 6155 ft 145 kts 318°
2026-04-22 13:21 50.56640 -119.67439 5982 ft 157 kts 317°
2026-04-22 13:21 50.57427 -119.68582 6011 ft 151 kts 313°
2026-04-22 13:22 50.58020 -119.69916 5990 ft 147 kts 303°
2026-04-22 13:22 50.58508 -119.71298 5984 ft 142 kts 302°
2026-04-22 13:22 50.58946 -119.72654 6043 ft 135 kts 300°
2026-04-22 13:22 50.59381 -119.73880 6163 ft 123 kts 300°
2026-04-22 13:23 50.59792 -119.74989 6230 ft 115 kts 304°
2026-04-22 13:23 50.60184 -119.76111 6353 ft 121 kts 300°
2026-04-22 13:23 50.60563 -119.77337 6417 ft 128 kts 300°
2026-04-22 13:23 50.60979 -119.78627 6453 ft 136 kts 300°
2026-04-22 13:24 50.61428 -119.79978 6475 ft 143 kts 301°
2026-04-22 13:24 50.61895 -119.81386 6475 ft 147 kts 300°
2026-04-22 13:24 50.62265 -119.82915 6476 ft 153 kts 287°
2026-04-22 13:24 50.62467 -119.84570 6471 ft 154 kts 284°
2026-04-22 13:25 50.62629 -119.86239 6460 ft 154 kts 283°
2026-04-22 13:25 50.62775 -119.87912 6473 ft 154 kts 282°
2026-04-22 13:25 50.62920 -119.89590 6477 ft 155 kts 282°
2026-04-22 13:25 50.63070 -119.91269 6480 ft 154 kts 282°
2026-04-22 13:26 50.63213 -119.92949 6483 ft 155 kts 282°
2026-04-22 13:26 50.63355 -119.94638 6482 ft 156 kts 282°
2026-04-22 13:26 50.63499 -119.96334 6481 ft 156 kts 282°
2026-04-22 13:26 50.63642 -119.98035 6481 ft 157 kts 282°
2026-04-22 13:27 50.63781 -119.99715 6486 ft 157 kts 282°
2026-04-22 13:27 50.63925 -120.01420 6490 ft 157 kts 282°
2026-04-22 13:27 50.64067 -120.03115 6484 ft 155 kts 282°
2026-04-22 13:27 50.64205 -120.04798 6501 ft 155 kts 282°
2026-04-22 13:28 50.64344 -120.06482 6504 ft 155 kts 282°
2026-04-22 13:28 50.64486 -120.08166 6505 ft 155 kts 282°
2026-04-22 13:28 50.64629 -120.09854 6503 ft 155 kts 282°
2026-04-22 13:28 50.64770 -120.11529 6515 ft 154 kts 282°
2026-04-22 13:29 50.64913 -120.13203 6525 ft 155 kts 282°
2026-04-22 13:29 50.65058 -120.14886 6526 ft 155 kts 282°
2026-04-22 13:29 50.65202 -120.16574 6523 ft 156 kts 282°
2026-04-22 13:29 50.65348 -120.18282 6465 ft 160 kts 282°
2026-04-22 13:30 50.65506 -120.20059 6317 ft 167 kts 282°
2026-04-22 13:30 50.65669 -120.21909 6149 ft 172 kts 282°
2026-04-22 13:30 50.65834 -120.23726 5962 ft 155 kts 283°
2026-04-22 13:30 50.66056 -120.25231 5774 ft 133 kts 291°
2026-04-22 13:31 50.66338 -120.26548 5592 ft 121 kts 292°
2026-04-22 13:31 50.66622 -120.27754 5413 ft 114 kts 293°
2026-04-22 13:31 50.66906 -120.28900 5237 ft 110 kts 294°
2026-04-22 13:31 50.67190 -120.30023 4989 ft 110 kts 297°
2026-04-22 13:32 50.67460 -120.31112 4733 ft 102 kts 296°
2026-04-22 13:32 50.67706 -120.32135 4455 ft 97 kts 295°
2026-04-22 13:32 50.68075 -120.32970 4159 ft 98 kts 332°
2026-04-22 13:32 50.68782 -120.32981 3876 ft 106 kts
2026-04-22 13:33 50.69511 -120.32851 3670 ft 100 kts 343°
2026-04-22 13:33 50.69880 -120.33627 3390 ft 101 kts 272°
2026-04-22 13:33 50.69660 -120.34704 3123 ft 104 kts 252°
2026-04-22 13:33 50.69365 -120.35751 2852 ft 105 kts 249°
2026-04-22 13:34 50.69150 -120.36850 2602 ft 106 kts 269°
2026-04-22 13:34 50.69232 -120.37984 2369 ft 106 kts 283°
2026-04-22 13:34 50.69411 -120.39055 2164 ft 95 kts 285°
2026-04-22 13:34 50.69585 -120.40050 1883 ft 91 kts 286°
2026-04-22 13:35 50.69706 -120.40914 1701 ft 69 kts 288°
2026-04-22 13:35 50.69812 -120.41599 1515 ft 64 kts 287°
2026-04-22 13:35 50.69912 -120.42314 1364 ft 70 kts 288°
2026-04-22 13:35 50.70031 -120.43053 1204 ft 68 kts 284°
2026-04-22 13:36 50.70136 -120.43749 1133 ft 57 kts 283°
2026-04-22 13:36 50.70208 -120.44210 1133 ft 27 kts 283°
2026-04-22 13:36 50.70282 -120.44388 1133 ft 22 kts 16°
2026-04-22 13:36 50.70370 -120.44253 1135 ft 16 kts 60°
2026-04-22 13:37 50.70431 -120.44082 1134 ft 17 kts 59°
2026-04-22 13:37 50.70519 -120.43981 1135 ft 13 kts 30°
2026-04-22 13:37 50.70580 -120.43839 1133 ft 16 kts 64°
2026-04-22 13:37 50.70615 -120.43768 1135 ft 6 kts 356°
2026-04-22 13:38 50.70644 -120.43770 1133 ft 3 kts 66°
2026-04-22 13:38 50.70645 -120.43767 1133 ft 0 kts 63°